Location: Blackie
(50.6050°N, 113.6230°W)
Time: 08:05:50
(UTC+00:00)

N. Korean satellite - Pass Details

Date: 08 December 2021
Orbit: 446 x 491 km, 97.3° (Epoch: 18 January)

Event Time Altitude Azimuth Distance (km) Brightness Sun altitude
Rises 00:54:36 0° 205° (SSW) 2,516 10.9 -12.6°
Reaches altitude 10° 00:57:14 10° 227° (SW) 1,633 10.4 -13.0°
Maximum altitude 00:59:33 17° 268° (W) 1,273 9.8 -13.3°
Drops below altitude 10° 01:01:52 10° 310° (NW) 1,625 9.6 -13.7°
Sets 01:04:29 0° 332° (NNW) 2,496 10.3 -14.1°
